User: anonymous   Login
Location: Владивосток
(43.1151°N, 131.8856°E)
Time: 22:28:40
(UTC+10:00)
Language:

IRIDIUM 33 DEB - Orbit

View from above orbital plane
View from above orbital plane
View from above satellite
View from above satellite

Ground track
Ground track

The orbit data is extracted from the following two-line orbital elements,

1 34359U 97051FB  22341.97883756  .00100302  00000-0  74670-2 0  9993
2 34359  86.3486  62.8949 0019687 134.3642 225.9208 15.02312522735212
Epoch (UTC): 07 December 2022 23:29:31
Eccentricity: 0.0019687
inclination: 86.3486°
perigee height: 546 km
apogee height: 573 km
right ascension of ascending node: 62.8949°
argument of perigee: 134.3642°
revolutions per day: 15.02312522
mean anomaly at epoch: 225.9208°
orbit number at epoch: 73521

The dashed part of the orbit path shows where the satellite is in the earth's shadow,  

DLR